This demonstration page uses our WeatherBlox Daily Observations layout. Learn more.

Left ArrowRight Arrow

Hourly Observations for November 9, 2019

Temp ( °F °C ) Dew Point ( °F °C ) Humidity (%) Winds ( mph kmh ) Pressure ( in mb ) Visibility ( mi km ) Precip ( " mm )
12:53 am 00:53 Clear 42 5.6 26 -3.3 53 53 WNW 10 17 30.08 1019 10 16 0.00 0.00
1:53 am 01:53 Clear 38 3.3 26 -3.3 62 62 WNW 8 13 30.08 1019 10 16 0.00 0.00
2:53 am 02:53 Clear 39 3.9 26 -3.3 60 60 W 7 11 30.06 1018 10 16 0.00 0.00
3:53 am 03:53 Clear 39 3.9 25 -3.9 57 57 WSW 7 11 30.05 1018 10 16 0.00 0.00
4:53 am 04:53 Clear 39 3.9 25 -3.9 57 57 W 8 13 30.05 1018 10 16 0.00 0.00
5:53 am 05:53 Clear 40 4.4 26 -3.3 58 58 W 7 11 30.06 1018 10 16 0.00 0.00
6:53 am 06:53 Clear 40 4.4 26 -3.3 58 58 W 6 9 30.06 1018 10 16 0.00 0.00
7:53 am 07:53 Sunny 40 4.4 27 -2.8 60 60 W 5 7 30.06 1018 10 16 0.00 0.00
8:53 am 08:53 Sunny 48 8.9 29 -1.7 48 48 W 8 13 30.06 1018 10 16 0.00 0.00
9:53 am 09:53 Sunny 55 12.8 30 -1.1 38 38 W 8 13 30.04 1017 10 16 0.00 0.00
10:53 am 10:53 Sunny 61 16.1 30 -1.1 31 31 SW 7 11 30.02 1017 10 16 0.00 0.00
11:53 am 11:53 Sunny 67 19.4 28 -2.2 23 23 SW 8 13 29.98 1015 10 16 0.00 0.00
12:53 pm 12:53 Sunny 72 22.2 25 -3.9 17 17 WSW 10 17 29.93 1014 10 16 0.00 0.00
1:53 pm 13:53 Sunny 74 23.3 24 -4.4 15 15 WSW 15 24 29.90 1013 10 16 0.00 0.00
2:53 pm 14:53 Sunny 74 23.3 24 -4.4 15 15 W 15 24 29.88 1012 10 16 0.00 0.00
3:53 pm 15:53 Sunny 72 22.2 26 -3.3 18 18 WSW 9 15 29.88 1012 10 16 0.00 0.00
4:53 pm 16:53 Sunny 71 21.7 27 -2.8 19 19 S 6 9 29.86 1011 10 16 0.00 0.00
5:53 pm 17:53 Clear 64 17.8 26 -3.3 24 24 S 6 9 29.87 1012 10 16 0.00 0.00
6:53 pm 18:53 Clear 57 13.9 25 -3.9 29 29 SW 3 6 29.88 1012 10 16 0.00 0.00
7:53 pm 19:53 Clear 52 11.1 27 -2.8 38 38 Calm 29.90 1013 10 16 0.00 0.00
8:53 pm 20:53 Clear 49 9.4 27 -2.8 43 43 N 8 13 29.91 1013 10 16 0.00 0.00
9:53 pm 21:53 Clear 53 11.7 27 -2.8 37 37 N 9 15 29.93 1014 10 16 0.00 0.00
10:53 pm 22:53 Clear 49 9.4 27 -2.8 43 43 NNW 8 13 29.94 1014 10 16 0.00 0.00
11:53 pm 23:53 Clear 43 6.1 26 -3.3 51 51 NW 7 11 29.94 1014 10 16 0.00 0.00

Powered by AerisWeather